• In Netherlands
  • List of Countries
  • For 7 days
  • Water Temperature
  • Satellite Maps
  • Weather Map
  • Weather Widgets
  • user-avatar
    Login

    Hourly Weather Mazari Sharif

    Today, 19 January, Friday

    Time Temperature Precipitation Wind Pressure Humidity
    00:00 +4°C° 0 mm 2 mps 654 mmHg 39%
    01:00 +4°C° 0 mm 2 mps 654 mmHg 37%
    02:00 +4°C° 0 mm 2 mps 654 mmHg 37%
    03:00 +4°C° 0 mm 2 mps 654 mmHg 36%
    04:00 +4°C° 0 mm 2 mps 654 mmHg 35%
    05:00 +3°C° 0 mm 3 mps 655 mmHg 35%
    06:00 +2°C° 0 mm 3 mps 655 mmHg 34%
    07:00 +2°C° 0 mm 3 mps 655 mmHg 33%
    08:00 +4°C° 0 mm 3 mps 656 mmHg 30%
    09:00 +7°C° 0 mm 2 mps 657 mmHg 27%
    10:00 +9°C° 0 mm 2 mps 657 mmHg 25%
    11:00 +10°C° 0 mm 2 mps 657 mmHg 23%
    12:00 +11°C° 0 mm 3 mps 657 mmHg 22%
    13:00 +12°C° 0 mm 3 mps 657 mmHg 20%
    14:00 +11°C° 0 mm 3 mps 657 mmHg 23%
    15:00 +10°C° 0 mm 3 mps 657 mmHg 25%
    16:00 +10°C° 0 mm 3 mps 657 mmHg 27%
    17:00 +9°C° 0 mm 3 mps 657 mmHg 29%
    18:00 +8°C° 0 mm 3 mps 657 mmHg 30%
    19:00 +7°C° 0 mm 3 mps 657 mmHg 32%
    20:00 +5°C° 0 mm 3 mps 657 mmHg 31%
    21:00 +5°C° 0 mm 3 mps 657 mmHg 31%
    22:00 +5°C° 0 mm 3 mps 657 mmHg 31%
    23:00 +5°C° 0 mm 3 mps 657 mmHg 30%

    Tomorrow, 20 January, Saturday

    Time Temperature Precipitation Wind Pressure Humidity
    00:00 +4°C° 0 mm 3 mps 657 mmHg 29%
    01:00 +4°C° 0 mm 3 mps 657 mmHg 29%
    02:00 +4°C° 0 mm 3 mps 656 mmHg 28%
    03:00 +4°C° 0 mm 3 mps 656 mmHg 27%
    04:00 +4°C° 0 mm 3 mps 656 mmHg 27%
    05:00 +4°C° 0 mm 3 mps 656 mmHg 26%
    06:00 +4°C° 0 mm 3 mps 656 mmHg 24%
    07:00 +3°C° 0 mm 3 mps 656 mmHg 23%
    08:00 +7°C° 0 mm 3 mps 656 mmHg 21%
    09:00 +9°C° 0 mm 3 mps 656 mmHg 19%
    10:00 +11°C° 0 mm 3 mps 657 mmHg 17%
    11:00 +12°C° 0 mm 3 mps 656 mmHg 16%
    12:00 +13°C° 0 mm 3 mps 656 mmHg 15%
    13:00 +14°C° 0 mm 3 mps 655 mmHg 14%
    14:00 +14°C° 0 mm 2 mps 655 mmHg 16%
    15:00 +13°C° 0 mm 2 mps 654 mmHg 18%
    16:00 +12°C° 0 mm 2 mps 653 mmHg 21%
    17:00 +10°C° 0 mm 2 mps 653 mmHg 21%
    18:00 +8°C° 0 mm 2 mps 653 mmHg 22%
    19:00 +7°C° 0 mm 2 mps 653 mmHg 23%
    20:00 +7°C° 0 mm 2 mps 652 mmHg 22%
    21:00 +7°C° 0 mm 2 mps 652 mmHg 22%
    22:00 +6°C° 0 mm 2 mps 652 mmHg 22%
    23:00 +6°C° 0 mm 2 mps 652 mmHg 22%

    Day after tomorrow, 21 January, Sunday

    Time Temperature Precipitation Wind Pressure Humidity
    00:00 +6°C° 0 mm 2 mps 652 mmHg 22%
    01:00 +5°C° 0 mm 2 mps 652 mmHg 22%
    02:00 +5°C° 0 mm 2 mps 652 mmHg 22%
    03:00 +5°C° 0 mm 2 mps 652 mmHg 22%
    04:00 +5°C° 0 mm 2 mps 652 mmHg 21%
    05:00 +5°C° 0 mm 2 mps 652 mmHg 21%
    06:00 +5°C° 0 mm 2 mps 653 mmHg 21%
    07:00 +4°C° 0 mm 2 mps 653 mmHg 21%
    08:00 +6°C° 0 mm 2 mps 654 mmHg 19%
    09:00 +8°C° 0 mm 2 mps 655 mmHg 18%
    10:00 +10°C° 0 mm 2 mps 655 mmHg 17%
    11:00 +10°C° 0 mm 2 mps 655 mmHg 18%
    12:00 +10°C° 0 mm 3 mps 655 mmHg 19%
    13:00 +10°C° 0 mm 3 mps 654 mmHg 21%
    14:00 +9°C° 0 mm 3 mps 654 mmHg 24%
    15:00 +9°C° 0 mm 2 mps 654 mmHg 26%
    16:00 +8°C° 0 mm 2 mps 654 mmHg 29%
    17:00 +7°C° 0 mm 2 mps 654 mmHg 33%
    18:00 +6°C° 0 mm 2 mps 654 mmHg 36%
    19:00 +5°C° 0 mm 1 mps 654 mmHg 39%
    20:00 +5°C° 0 mm 1 mps 654 mmHg 40%
    21:00 +4°C° 0 mm 1 mps 654 mmHg 42%
    22:00 +4°C° 0 mm 1 mps 654 mmHg 43%
    23:00 +3°C° 0 mm 1 mps 654 mmHg 44%

    22 January, Monday

    Time Temperature Precipitation Wind Pressure Humidity
    00:00 +3°C° 0 mm 1 mps 654 mmHg 45%
    01:00 +3°C° 0 mm 1 mps 654 mmHg 47%
    02:00 +2°C° 0 mm 1 mps 654 mmHg 48%
    03:00 +2°C° 0 mm 1 mps 654 mmHg 49%
    04:00 +2°C° 0 mm 1 mps 654 mmHg 50%
    05:00 +1°C° 0 mm 1 mps 654 mmHg 51%
    06:00 +1°C° 0 mm 1 mps 654 mmHg 52%
    07:00 +1°C° 0 mm 1 mps 654 mmHg 52%
    08:00 +2°C° 0 mm 1 mps 655 mmHg 48%
    09:00 +4°C° 0 mm 1 mps 655 mmHg 43%
    10:00 +6°C° 0 mm 1 mps 656 mmHg 38%
    11:00 +5°C° 0 mm 2 mps 655 mmHg 37%
    12:00 +6°C° 0 mm 2 mps 655 mmHg 36%
    13:00 +6°C° 0 mm 2 mps 655 mmHg 36%
    14:00 +6°C° 0 mm 2 mps 654 mmHg 37%
    15:00 +7°C° 0 mm 1 mps 654 mmHg 39%
    16:00 +6°C° 0 mm 1 mps 654 mmHg 40%
    17:00 +6°C° 0 mm 1 mps 654 mmHg 43%
    18:00 +5°C° 0 mm 1 mps 654 mmHg 46%
    19:00 +3°C° 0 mm 0 mps 654 mmHg 49%
    20:00 +3°C° 0 mm 0 mps 654 mmHg 50%
    21:00 +2°C° 0 mm 0 mps 654 mmHg 50%
    22:00 +2°C° 0 mm 0 mps 654 mmHg 51%
    23:00 +3°C° 0 mm 1 mps 654 mmHg 49%

    23 January, Tuesday

    Time Temperature Precipitation Wind Pressure Humidity
    00:00 +3°C° 0 mm 1 mps 653 mmHg 48%
    01:00 +3°C° 0 mm 1 mps 653 mmHg 47%
    02:00 +3°C° 0 mm 1 mps 653 mmHg 45%
    03:00 +2°C° 0 mm 2 mps 653 mmHg 44%
    04:00 +2°C° 0 mm 2 mps 653 mmHg 42%
    05:00 +2°C° 0 mm 2 mps 653 mmHg 40%
    06:00 +2°C° 0 mm 2 mps 653 mmHg 39%
    07:00 +2°C° 0 mm 2 mps 653 mmHg 37%
    08:00 +4°C° 0 mm 2 mps 653 mmHg 32%
    09:00 +6°C° 0 mm 2 mps 654 mmHg 27%
    10:00 +8°C° 0 mm 2 mps 654 mmHg 22%
    11:00 +9°C° 0 mm 2 mps 654 mmHg 21%
    12:00 +10°C° 0 mm 2 mps 653 mmHg 20%
    13:00 +12°C° 0 mm 2 mps 653 mmHg 20%
    14:00 +10°C° 0 mm 2 mps 653 mmHg 22%
    15:00 +10°C° 0 mm 2 mps 653 mmHg 25%
    16:00 +9°C° 0 mm 2 mps 652 mmHg 27%
    17:00 +8°C° 0 mm 2 mps 652 mmHg 28%
    18:00 +7°C° 0 mm 2 mps 652 mmHg 29%
    19:00 +6°C° 0 mm 2 mps 652 mmHg 30%
    20:00 +6°C° 0 mm 2 mps 652 mmHg 30%
    21:00 +6°C° 0 mm 2 mps 652 mmHg 29%
    22:00 +6°C° 0 mm 2 mps 652 mmHg 28%
    23:00 +5°C° 0 mm 2 mps 652 mmHg 28%

    24 January, Wednesday

    Time Temperature Precipitation Wind Pressure Humidity
    00:00 +5°C° 0 mm 2 mps 652 mmHg 28%
    01:00 +5°C° 0 mm 2 mps 652 mmHg 27%
    02:00 +5°C° 0 mm 2 mps 652 mmHg 27%
    03:00 +3°C° 0 mm 3 mps 651 mmHg 27%
    04:00 +3°C° 0 mm 3 mps 651 mmHg 26%
    05:00 +3°C° 0 mm 3 mps 651 mmHg 26%
    06:00 +3°C° 0 mm 3 mps 652 mmHg 25%
    07:00 +3°C° 0 mm 3 mps 652 mmHg 25%
    08:00 +6°C° 0 mm 2 mps 652 mmHg 22%
    09:00 +8°C° 0 mm 2 mps 653 mmHg 19%
    10:00 +12°C° 0 mm 2 mps 653 mmHg 16%
    11:00 +12°C° 0 mm 2 mps 653 mmHg 15%
    12:00 +13°C° 0 mm 2 mps 653 mmHg 14%
    13:00 +14°C° 0 mm 2 mps 652 mmHg 13%
    14:00 +13°C° 0 mm 2 mps 652 mmHg 15%
    15:00 +13°C° 0 mm 2 mps 652 mmHg 16%
    16:00 +12°C° 0 mm 2 mps 651 mmHg 18%
    17:00 +10°C° 0 mm 2 mps 651 mmHg 19%
    18:00 +8°C° 0 mm 2 mps 651 mmHg 21%
    19:00 +8°C° 0 mm 1 mps 651 mmHg 22%
    20:00 +8°C° 0 mm 1 mps 651 mmHg 22%
    21:00 +7°C° 0 mm 2 mps 651 mmHg 22%
    22:00 +6°C° 0 mm 2 mps 650 mmHg 22%
    23:00 +6°C° 0 mm 2 mps 650 mmHg 22%
    Show more